Vorticity
nan nan nan nan nan nan nan nan nan nan nan nan nan nan nan nan nan nan nan nan nan nan nan nan nan nan nan nan nan nan nan nan nan nan nan nan nan nan nan nan nan nan nan nan nan nan nan nan nan
nan 2 5 7 5 5 7 9 8 7 6 6 7 6 4 7 11 9 9 9 7 6 7 8 7 4 4 4 5 6 5 4 5 4 4 4 4 4 5 5 6 5 6 6 7 7 6 6 nan
nan 4 6 9 7 7 8 8 7 9 6 3 5 5 8 9 10 6 9 10 5 7 9 10 7 5 4 3 4 4 4 4 5 4 4 4 4 4 4 4 6 6 6 6 7 6 5 5 nan
nan 5 7 7 6 8 11 10 7 3 3 10 6 3 10 7 9 11 9 5 5 6 9 10 6 4 3 3 3 3 3 4 3 4 4 3 4 4 4 3 4 5 6 6 6 6 5 6 nan
nan 7 8 5 6 7 10 11 6 5 8 8 6 7 5 8 15 10 4 5 5 5 7 8 7 4 4 3 4 3 3 3 2 3 3 4 4 4 3 3 3 4 6 7 6 6 6 6 nan
nan 8 5 8 7 7 8 6 5 7 9 6 6 8 7 12 6 5 6 5 5 5 6 8 8 5 4 4 4 4 4 3 3 3 4 4 4 5 5 5 5 6 5 6 7 7 5 4 nan
nan 8 8 6 6 6 7 4 8 7 4 6 5 4 9 8 5 7 6 7 6 5 6 7 8 8 6 5 4 4 4 3 4 4 3 4 5 6 6 7 7 7 8 7 6 6 5 4 nan
nan 7 7 8 6 7 7 6 7 6 6 10 8 6 11 10 6 6 8 6 6 6 6 6 6 6 7 10 8 5 5 4 4 5 5 5 8 7 7 8 6 7 9 7 7 6 6 6 nan
nan 7 7 9 8 8 6 7 5 6 6 6 11 16 17 10 4 6 6 5 6 6 6 7 7 6 7 6 9 10 7 8 6 7 7 5 6 5 9 10 8 7 7 9 7 7 7 6 nan
nan 9 9 8 8 11 7 7 6 8 2 3 11 16 13 5 4 4 5 5 5 5 6 6 7 7 7 6 8 7 8 8 8 8 9 8 8 7 9 8 8 7 6 8 9 9 6 3 nan
nan 7 8 9 16 13 2 4 10 5 4 15 11 6 5 2 3 5 5 8 6 4 6 7 6 7 6 6 7 6 8 7 8 8 7 7 6 8 10 7 7 8 6 5 9 8 8 8 nan
nan 10 12 11 12 8 8 3 5 4 13 18 15 8 4 4 4 5 6 7 7 7 6 5 7 6 6 6 7 7 7 7 7 8 7 7 6 7 8 7 7 7 8 7 6 8 8 7 nan
nan 9 13 13 7 8 8 3 7 7 16 14 10 7 5 5 3 5 7 6 8 8 7 7 6 6 7 6 6 7 7 7 7 8 8 6 7 8 7 7 7 7 7 7 7 7 7 8 nan
nan 11 11 9 7 6 7 8 5 12 11 9 7 5 5 5 4 4 7 7 7 8 8 8 7 7 7 7 7 6 8 7 7 8 8 7 7 8 8 8 7 7 8 8 7 7 7 8 nan
nan 9 7 7 10 7 7 4 9 14 9 7 6 5 7 5 6 6 6 7 6 6 9 9 7 7 7 7 6 7 8 8 7 8 9 8 7 8 8 7 7 8 9 8 8 8 8 9 nan
nan 6 8 8 8 7 4 4 17 14 5 4 6 5 6 9 7 6 6 7 7 8 9 8 9 7 7 7 7 7 8 9 8 8 9 9 9 8 8 7 8 9 9 9 7 7 9 8 nan
nan 11 5 6 8 10 6 12 11 9 9 6 5 6 6 5 5 9 8 7 8 7 7 8 9 9 8 7 8 7 9 9 10 9 9 9 8 8 8 7 8 9 8 9 7 8 9 8 nan
nan 7 8 9 9 8 7 12 11 8 9 7 5 6 6 8 6 9 9 7 7 8 8 8 9 9 9 7 8 8 9 9 9 8 9 7 8 9 7 8 9 8 7 7 8 8 9 10 nan
nan 8 7 9 10 9 8 10 12 6 2 6 8 7 7 7 10 9 12 9 7 8 8 7 7 7 5 7 8 9 8 8 9 10 8 8 9 9 8 7 9 9 9 10 8 8 8 9 nan
nan 9 6 10 12 8 10 10 15 10 8 6 4 7 7 4 9 10 12 10 9 7 5 7 6 7 5 5 8 9 10 8 9 11 9 9 9 7 7 8 9 8 10 10 8 7 6 8 nan
nan 9 8 9 7 7 10 10 12 9 9 7 7 7 8 10 8 10 12 10 7 7 8 7 7 6 6 6 5 7 8 9 9 9 10 10 9 8 7 8 7 8 8 8 8 7 8 9 nan
nan 11 7 9 9 7 6 13 9 19 12 5 6 5 7 6 7 10 10 10 9 8 7 9 9 7 8 7 6 7 7 7 7 8 9 10 8 8 9 9 8 8 8 8 8 7 6 8 nan
nan 12 9 7 6 10 8 13 9 13 16 14 9 7 7 7 8 9 10 9 7 9 10 9 8 7 9 7 6 6 6 7 9 9 8 8 10 11 9 10 8 7 8 9 9 8 7 7 nan
nan 5 9 10 7 7 12 7 8 11 12 14 13 11 8 9 9 11 11 8 9 8 12 11 9 6 8 8 8 8 7 6 5 7 8 10 10 10 10 9 8 8 8 10 9 9 8 7 nan
nan 6 7 7 11 7 9 11 9 6 11 18 15 10 10 8 7 9 10 10 10 10 7 8 8 8 8 7 7 9 9 8 6 6 9 8 9 10 10 9 9 8 10 9 10 9 9 9 nan
nan 6 9 11 6 9 10 8 7 6 14 18 18 17 13 9 10 10 9 8 8 8 7 7 7 8 9 7 7 7 8 8 9 9 8 9 9 9 10 9 9 9 8 9 9 8 9 9 nan
nan 8 7 4 10 13 4 3 11 11 12 15 15 15 13 9 10 9 9 9 8 10 13 11 8 8 9 8 8 8 8 8 8 9 6 9 9 10 9 9 8 9 9 9 8 9 9 8 nan
nan 7 5 9 13 6 8 11 10 6 11 8 12 9 11 10 8 10 10 11 11 8 9 10 11 14 15 13 7 9 8 7 9 9 9 8 9 9 8 9 10 9 10 10 8 8 10 8 nan
nan 7 11 16 10 12 8 11 12 9 13 10 7 10 10 11 10 10 11 8 12 16 13 7 5 7 10 9 13 12 10 9 8 8 10 9 8 8 8 10 10 10 9 9 10 10 11 10 nan
nan nan nan nan nan nan nan nan nan nan nan nan nan nan nan nan nan nan nan nan nan nan nan nan nan nan nan nan nan nan nan nan nan nan nan nan nan nan nan nan nan nan nan nan nan nan nan nan nan
CAPE
885 483 665 570 0 0 0 0 0 1 0 0 0 0 0 0 1 0 0 0 73 212 433 638 1529 1544 1286 1768 1852 1420 1433 1119 1353 1381 982 988 1039 1131 1353 1327 1216 1042 689 691 831 684 726 896 1042
766 1039 998 28 0 0 0 0 0 0 0 0 0 0 0 5 5 1 3 0 194 406 395 566 1498 1514 942 1370 1413 1590 724 810 902 886 879 861 809 782 883 1145 1016 837 818 814 736 757 940 849 1042
1296 1447 802 0 0 0 0 0 0 0 0 1 0 0 0 7 27 23 20 120 321 490 485 564 1475 1572 756 772 792 879 857 921 1061 1075 962 757 608 733 917 748 767 942 757 738 724 695 776 818 732
2114 1559 55 0 0 0 0 0 0 0 0 0 0 0 0 34 40 63 103 250 241 467 503 1053 1089 771 607 559 589 639 536 481 521 476 559 611 859 700 428 683 933 729 694 785 654 637 729 835 574
741 37 2 0 0 0 0 0 0 0 0 0 0 1 24 21 75 65 161 233 360 475 535 754 1323 631 428 467 409 431 487 424 400 394 363 372 359 290 375 416 502 573 678 715 764 674 659 682 748
16 0 0 0 0 0 0 0 0 0 0 0 2 34 17 91 79 99 146 200 451 457 583 752 999 956 634 575 535 446 462 462 409 389 400 423 648 622 578 772 939 725 765 672 663 649 613 661 598
0 0 0 0 0 0 0 0 0 0 0 0 1 35 26 123 65 117 125 191 350 540 613 656 446 501 649 645 610 447 477 458 539 447 470 569 854 1174 1078 917 642 709 674 704 610 595 561 426 544
0 0 0 2 0 0 0 10 0 0 0 0 16 28 87 164 179 179 129 171 328 593 712 522 390 709 946 864 937 751 648 648 702 491 816 1220 910 1000 798 1067 988 898 822 746 799 570 490 492 430
0 0 0 0 0 0 2 44 0 0 0 0 0 17 8 110 343 362 328 268 525 760 798 711 623 677 611 573 738 1066 1050 980 1099 1188 1141 926 430 384 590 766 903 1126 824 756 821 740 518 428 392
0 0 0 0 0 0 2 25 0 0 0 0 51 44 125 205 329 410 322 384 500 616 846 897 844 699 579 989 869 918 870 975 784 861 610 505 509 608 938 744 353 940 1124 892 881 717 536 517 375
2 0 0 0 0 0 7 8 0 0 0 0 74 79 174 265 266 339 301 272 326 452 713 824 793 757 629 803 787 791 593 523 566 376 498 478 340 282 516 269 316 65 425 562 616 681 735 269 219
10 0 0 12 10 1 0 0 0 0 0 0 69 127 239 307 300 190 215 153 156 257 481 632 707 723 589 600 594 723 770 487 479 511 412 352 282 6 414 129 107 86 1 70 164 359 263 260 187
5 4 10 53 1 8 3 0 0 0 0 3 91 248 264 304 284 114 148 195 183 223 257 384 480 548 568 475 498 608 748 676 563 478 443 467 295 103 0 50 130 239 67 94 20 135 192 236 199
2 40 54 0 0 4 0 0 0 0 0 0 115 127 219 235 198 1 12 32 22 156 237 334 405 389 294 326 399 430 420 524 453 414 472 607 253 268 71 12 84 228 352 110 121 144 206 191 265
9 81 77 158 11 0 15 18 7 0 0 0 111 5 87 169 19 14 0 0 16 70 190 155 306 333 286 219 284 296 269 368 489 380 593 671 524 429 353 277 453 565 380 221 143 81 173 203 232
0 27 109 266 48 33 0 0 0 0 0 0 0 0 0 0 0 0 0 0 0 54 137 120 264 245 259 209 251 259 369 360 403 314 519 917 857 726 737 788 525 585 214 285 175 147 198 185 165
0 23 51 68 96 112 19 0 2 0 1 8 0 0 0 0 0 0 0 0 0 0 25 120 221 237 196 148 152 547 654 675 746 702 847 918 894 1009 709 846 771 213 467 431 335 125 209 172 99
0 0 164 1 137 194 5 0 23 0 0 27 2 0 0 0 0 0 0 0 0 0 30 123 217 276 80 5 272 741 591 352 553 842 743 116 93 250 976 564 331 683 554 328 424 179 202 154 82
0 0 126 142 112 363 390 94 32 7 0 0 0 0 0 0 0 0 0 0 0 0 79 128 151 230 5 51 591 773 861 777 483 334 147 171 50 167 509 0 602 1009 944 606 280 100 268 294 88
0 0 70 42 206 90 127 280 89 48 21 0 0 0 0 0 0 0 0 0 0 7 106 124 137 161 79 76 651 893 1000 877 722 696 410 588 145 302 1149 457 511 492 472 307 232 217 151 209 73
0 0 0 36 219 146 160 129 109 45 37 0 0 0 0 0 0 0 0 0 0 38 110 153 172 107 201 418 771 414 233 415 627 725 934 925 951 543 705 596 679 206 247 364 244 202 188 237 169
0 0 0 130 98 54 79 155 103 147 5 0 0 0 0 0 0 0 0 0 0 34 109 186 229 205 264 650 973 1016 982 989 769 698 625 684 555 1181 1266 1043 757 701 32 382 174 132 141 151 226
0 0 0 47 1 1 80 46 0 72 110 0 0 0 0 0 0 0 0 0 6 64 127 254 324 356 456 716 959 990 881 607 416 161 160 211 594 1249 1613 770 310 782 343 619 232 118 112 66 102
0 0 0 0 0 44 0 68 19 68 222 146 31 0 0 0 0 0 0 0 23 106 168 370 375 485 519 715 823 1083 1018 756 825 869 837 386 764 1562 1385 497 139 701 810 835 526 3 232 91 87
0 0 0 8 28 16 0 33 27 0 0 78 135 91 0 0 0 0 0 0 25 109 199 468 523 573 615 723 848 948 959 786 848 860 1160 1167 1051 1522 1452 1521 978 863 789 1005 501 43 91 286 297
0 0 0 4 0 0 0 0 0 0 0 0 75 181 50 0 0 0 0 10 33 113 202 543 625 658 717 792 892 977 863 837 847 1036 1373 1356 1398 1563 903 877 1552 1337 1097 737 368 164 162 223 327
0 0 0 0 0 0 0 0 0 0 35 23 0 185 82 1 0 8 0 48 54 67 164 597 753 836 875 832 876 1011 1188 1118 1029 1036 1257 1474 1535 1665 1006 423 746 1460 1256 1403 709 515 415 367 302
0 0 0 0 0 0 0 0 0 0 49 52 117 108 62 83 19 43 24 28 96 117 156 326 604 722 773 839 805 1007 1240 1484 1544 1249 1366 1278 1324 1560 1727 1633 1204 1622 1399 1303 1265 831 528 460 387
0 0 0 0 0 0 0 0 0 0 0 169 46 88 9 114 90 58 71 42 191 347 416 755 818 860 871 939 758 962 1208 1407 1762 1859 1699 1477 1365 1556 1333 1368 1382 1537 1557 1602 1285 870 818 631 537
0 0 0 0 0 0 0 0 0 0 0 0 14 2 140 138 153 109 142 155 526 547 343 897 1305 846 915 1155 1214 1154 1301 1546 1772 1830 1851 1872 1892 1616 1498 760 485 437 438 939 1195 1231 1016 735 403